RESURS-P 2

Last updated on Tue Oct 15 2024 00:02:24 GMT+0000 (Coordinated Universal Time)

1 40360U 14087A 24288.53584211 .00078701 00000+0 58895-3 0 9996 2 40360 97.1434 16.7162 0004870 198.3907 161.7182 15.72423829548198
UTC large
Height (km)
Speed (km/s)
/
Latitude / Longitude
Inclination (degrees)
Orbital Period (minutes)
Azimuth
Elevation
Range (km)
Doppler Factor

Next 0 passes for location: London (51.5072 / 0.1276)

Sorry there are no passes over London.